www.pogodaiklimat.ru

Погода и климат >> Архив погоды >> Мексика >> Campeche


ПОГОДА в Campeche

  • Прогноз погоды в Campeche
  • Монитор погоды в Campeche
  • Климат города

АРХИВ ПОГОДЫ в Campeche

Время (UTC), дата Ветер
(напр.,м/с)
 
Видим.   Явления Облачность Т
(С)
Тd
(С)
f
(%)
Тe
(С)
Тes
(С)
Комфортность P
(гПа)
Po
(гПа)
Тmin
(С)
Tmax
(С)
R
(мм)
R24
(мм)
S
(см)
06 13.06 В 2 6000 м ясно +26.0 +23.0 84 +35 +35 очень
душно
1013.7 1013.1 +23.5 +36.2
09 13.06 В 2 6000 м ясно +24.6 +23.2 92 +33 +33 очень
душно
1012.3 1011.8
12 13.06 В 2 10 км 3/0
[Ci fib]
+24.0 +22.6 92 +31 +32 очень
душно
1012.6 1012.0 +23.0 +36.2
15 13.06 В 2 10 км 3/1 500 м
[Cu hum Ci]
+30.2 +26.5 81 +47 +57 опасность
перегрева
1013.7 1013.1
18 13.06 В 1 10 км 9/5 600 м
[Cu med, cong Cs]
+33.2 +27.0 70 +51 +62 опасность
перегрева
1014.1 1013.5 +23.0 +33.8
21 13.06 С 3 10 км 8/5 500 м
[Cu med, cong Cs]
+32.7 +27.6 75 +52 +57 опасность
перегрева
1010.8 1010.2
00 14.06 В 2 10 км слабая морось {гроза} 10/3 600 м
[Cu med, cong As op]
+27.8 +25.1 85 +40 +40 очень
душно
1011.9 1011.3 0.5
03 14.06 В 1 6000 м 8/1 540 м
[Cu hum Ac trans]
+25.9 +23.8 88 +35 +35 очень
душно
1013.0 1012.5
06 14.06 В 2 6000 м 8/8 210 м
[Sc]
+25.8 +24.2 91 +36 +36 очень
душно
1013.1 1012.5 +23.0 +34.0
12 14.06 В 1 10 км 9/5 180 м
[Sc Ac As]
+25.0 +23.6 92 +34 +34 очень
душно
1012.7 1012.1 +24.6 +34.0
15 14.06 В 1 10 км 9/6 360 м
[Sc Ac und]
+28.0 +25.6 87 +41 +44 опасность
перегрева
1014.1 1013.5
18 14.06 С 2 10 км 9/3 270 м
[Cu med, cong As op]
+29.8 +26.9 84 +46 +51 опасность
перегрева
1013.5 1012.9 +24.6 +30.0
21 14.06 СЗ 3 10 км 8/5 450 м
[Cb cap As op]
+32.1 +27.5 77 +51 +54 опасность
перегрева
1010.6 1010.0
00 15.06 ЮВ 1 5000 м слабый дождь {ливн. осадки} 10/1 300 м
[Frnb Ac As]
+24.4 +24.0 98 +34 +34 очень
душно
1012.7 1012.2 43
03 15.06 В 1 6000 м слабая морось 10/0
[As op]
+24.1 +23.6 97 +33 +33 очень
душно
1013.8 1013.2 0.3
06 15.06 В 2 6000 м 10/0
[Ac inh]
+23.6 +22.8 95 +31 +31 очень
душно
1013.9 1012.3 0.4
09 15.06 ЮВ 2 6000 м 10/10 210 м
[Sc]
+22.8 +22.0 95 +31 +31 очень
душно
1012.6 1012.0
12 15.06 ЮВ 1 10 км 9/9 210 м
[Sc]
+23.0 +21.9 94 +31 +31 очень
душно
1011.9 1011.4 +22.6 +32.6
15 15.06 В 1 10 км 3/0
[Ac trans]
+28.0 +25.3 85 +41 +52 опасность
перегрева
1012.5 1011.9
18 15.06 В 2 10 км 8/3 720 м
[Cu hum Ac trans]
+31.7 +27.1 77 +50 +59 опасность
перегрева
1012.3 1011.7 +22.6 +32.0
21 15.06 В 3 10 км 8/8 720 м
[Cu med, cong]
+31.1 +26.1 75 +47 +49 опасность
перегрева
1009.6 1009.1
00 16.06 Ю 1 10 км слабая морось 9/5 600 м
[Cu med, cong As op]
+29.5 +26.6 84 +45 +46 опасность
перегрева
1009.4 1008.3 0.0
03 16.06 ЮВ 1 6000 м 10/10 210 м
[Sc]
+25.5 +24.3 93 +35 +35 очень
душно
1012.1 1011.5
06 16.06 ЮВ 2 6000 м 9/9 200 м
[Sc]
+24.9 +23.9 94 +34 +34 очень
душно
1011.9 1011.4 0.0
09 16.06 ЮВ 1 6000 м 10/10 150 м
[Sc]
+24.2 +23.7 97 +33 +33 очень
душно
1010.3 1009.7
12 16.06 ЮВ 1 10 км 6/0
[Ac trans]
+24.6 +24.1 97 +34 +34 очень
душно
1009.7 1009.1 +24.0 +33.8
15 16.06 ЮВ 1 10 км 5/0
[Ac trans]
+30.0 +27.7 88 +49 +59 опасность
перегрева
1010.9 1010.3
18 16.06 ЮВ 1 10 км 8/4 500 м
[Cu med, cong Ac trans Cs]
+34.1 +28.8 74 +57 +68 опасность
перегрева
1010.6 1010.0 +24.0 +34.9
21 16.06 штиль 0 8000 м ливневой дождь 10/3 90 м
[Cb cap As op]
+24.4 +23.9 97 +33 +36 очень
душно
1010.7 1010.1 137
12 17.06 ЮВ 1 10 км 9/0
[Ac As]
+24.4 +23.6 95 +33 +33 очень
душно
1012.0 1011.5 +24.2 +35.0
15 17.06 ЮВ 2 10 км 9/3 270 м
[Cu hum As op]
+29.2 +27.1 88 +46 +49 опасность
перегрева
1013.0 1012.4
00 18.06 В 3 10 км в посл. час дождь {ливн. осадки} 10/4 300 м
[Frnb Ac As]
+25.0 +24.2 95 +34 +35 очень
душно
1012.8 1012.2 42
03 18.06 В 1 6000 м морось 10/0
[Ac As]
+24.6 +23.8 95 +33 +33 очень
душно
1014.3 1013.7 2
06 18.06 В 1 6000 м слабая морось 10/0
[As op]
+24.6 +24.3 98 +34 +34 очень
душно
1013.9 1013.3 4
09 18.06 В 2 6000 м слабая морось 10/0
[As op]
+25.0 +24.5 97 +35 +35 очень
душно
1012.6 1012.0 0.6
12 18.06 штиль 0 10 км в посл. час морось 9/0
[Ac und]
+25.0 +24.6 98 +35 +35 очень
душно
1012.5 1011.9 0.3
15 18.06 В 2 10 км 4/3 330 м
[Cu hum Ac trans]
+29.0 +26.4 86 +44 +52 опасность
перегрева
1013.7 1013.1
18 18.06 В 3 10 км 5/1 800 м
[Cu hum Ac trans Cc]
+33.1 +29.0 79 +57 +69 опасность
перегрева
1012.8 1012.2 +24.4 +34.1
21 18.06 В 1 10 км 8/1 870 м
[Cu med, cong Ac cuf]
+35.4 +29.5 72 +61 +67 опасность
перегрева
1012.0 1011.5
00 19.06 В 2 10 км {морось} 8/0
[Ac As Ci sp]
+31.4 +27.5 80 +50 +51 опасность
перегрева
1011.4 1010.8 0.8
03 19.06 В 2 6000 м 8/0
[Ac trans]
+28.4 +25.5 84 +42 +42 опасность
перегрева
1012.9 1012.3
06 19.06 ЮВ 2 6000 м слабая морось 10/10 200 м
[Sc diur, vesp]
+27.1 +25.1 89 +39 +39 очень
душно
1013.5 1013.0 0.0
09 19.06 ЮВ 2 6000 м 10/10 240 м
[Sc Ac trans]
+26.0 +24.5 91 +36 +36 очень
душно
1011.6 1011.1
12 19.06 В 1 10 км 9/0
[Ac und]
+25.6 +24.8 95 +36 +36 очень
душно
1011.7 1011.2 +25.2 +36.2
15 19.06 В 2 10 км 4/0
[Ac trans]
+31.4 +26.9 77 +49 +58 опасность
перегрева
1011.8 1011.2
18 19.06 ЮВ 2 10 км 5/1 1110 м
[Cu hum Ac trans]
+34.9 +29.7 75 +61 +76 опасность
перегрева
1012.3 1011.8 +25.2 +34.9
21 19.06 ЮВ 2 10 км 3/1 1140 м
[Cu hum Ac trans]
+36.4 +29.1 66 +60 +70 опасность
перегрева
1010.4 1009.8
00 20.06 В 3 10 км 8/0
[Ac trans Ci]
+33.0 +27.8 74 +53 +53 опасность
перегрева
1009.7 1009.1 +25.2 +36.9

 

Местоположение метеостанции Campeche (Мексика): широта 19.85 долгота -90.55 высота над уровнем моря 5 м.

В архиве по умолчанию представлена погода в Campeche за последнюю неделю. Архивные данные за месяц целиком и за предыдущие месяцы, начиная с января 2011 года, Вы можете получить, выбрав интересующий диапазон дат из раскрывающегося списка и нажав кнопку "Ввод!".


*Определитесь, кто Вы:
робот инопланетянин человек

Внимание! Время в таблицах - всемирное. Для получения местного времени необходимо прибавить поправку, которая в Campeche равна -6 ч.

Смотрите также архив погоды в соседних городах и на ближайших метеорологических станциях:

Погода в Merida 2 (Мексика) (156 км)
Погода в Merida (Мексика) (157 км)
Погода в Progreso (Мексика) (187 км)
Погода в Valladolid (Мексика) (262 км)
Погода в Felipe Carrillo Puerto (Мексика) (278 км)
Погода в Chetumal (Мексика) (281 км)
Погода в Villahermosa (Мексика) (326 км)
Погода в Flores (Гватемала) (333 км)
Погода в Belize (Белиз) (350 км)
Погода в Sn. Cristobal Las Casas (Мексика) (409 км)

Пояснения к столбцам:

Ветер - указаны скорость ветра в м/с - средняя за 10 мин, порывы в срок и между сроками (в фигурных скобках) и направление, откуда дует ветер: С - северный, СВ - северо-восточный, В - восточный, ЮВ - юго-восточный, Ю - южный, ЮЗ - юго-западный, З - западный, СЗ - северо-западный.
Видимость - горизонтальная дальность видимости в метрах или километрах. При видимости от 1 до 10 км при отсутствии осадков обычно наблюдается дымка, при ухудшении видимости до 1 км и менее - туман. В сухую погоду видимость может ухудшаться дымом, пылью или мглою.
Явления - указаны атмосферные явления, наблюдавшиеся в срок или в последний час перед сроком; фигурными скобками обозначены явления, наблюдавшиеся между сроками (за 1-3 часа до срока); квадратными скобками обозначены град или гололедные отложения с указанием их диаметра в мм.
Облачность - указаны через наклонную черту общая и нижняя облачность в баллах и высота нижней границы облаков в метрах; квадратными скобками обозначены формы облаков: Ci - перистые, Cs - перисто-слоистые, Cc - перисто-кучевые, Ac - высококучевые, As - высокослоистые, Sc - слоисто-кучевые, Ns - слоисто-дождевые, Cu - кучевые, Cb - кучево-дождевые. Подробнее классификацию облаков см. в Атласе облаков (PDF).
T - Температура воздуха - температура, измеренная на высоте 2 м над землей.
Td - Температура точки росы - температура, при понижении до которой содержащийся в воздухе водяной пар достигнет насыщения.
f - Относительная влажность воздуха - влажноcть воздуха, измеренная на высоте 2 м над землей.
Te - Эффективная температура - температура, которую ощущает одетый по сезону человек в тени. Характеристика душности погоды. При расчете учитывается влияние влажности воздуха и скорости ветра на теплоощущения человека.
Tes - Эффективная температура на солнце - температура, которую ощущает человек, с поправкой на солнечный нагрев. Характеристика знойности погоды. Зависит от высоты солнца над горизонтом, облачности и скорости ветра. Ночью, в пасмурную погоду, а также при ветре 12 м/с и более поправка равна нулю.
P - Атмосферное давление - приведенное к уровню моря атмосферное давление.
Po - Атмосферное давление - измеренное на уровне метеостанции атмосферное давление.
Tmin - Минимальная температура - минимум температуры воздуха на высоте 2 м над землей.
Tmax - Максимальная температура - максимум температуры воздуха на высоте 2 м над землей.
R - Количество осадков - Количество выпавших осадков за период времени, мм. При наведении курсора мыши на число - период времени, за который выпало указанное количество осадков.
R24 - Количество осадков - Количество выпавших осадков за 24 часа, мм.
S - Снежный покров - Высота снежного покрова, см. При наведении курсора мыши на число - состояние снежного покрова и степень покрытия местности в баллах.